Weather History for Oconto, WI

Change the Weather History Date:

Monday, June 10, 2013

  Actual Average Record
Temperature  
Mean Temperature 63 °F -  
Max Temperature 74 °F 72 °F 74 °F (2013)
Min Temperature 53 °F 49 °F 45 °F (2014)
Degree Days  
Heating Degree Days 2    
Growing Degree Days 13 (Base 50)    
Moisture  
Dew Point 56 °F    
Average Humidity 80    
Maximum Humidity 98    
Minimum Humidity 61    
Precipitation  
Precipitation 0.00 in - - ()
Sea Level Pressure  
Sea Level Pressure 29.83 in    
Wind  
Wind Speed 3 mph (ENE)    
Max Wind Speed 7 mph    
Max Gust Speed -    
Visibility 10 miles    
Events      
Averages and records for this station are not official NWS values.
T = Trace of Precipitation, MM = Missing Value Source: NWS Daily Summary

Daily Weather History Graph

Daily Weather History Graph

Search for Another Location

Airport:

Trip Planner

Search our weather history database for the weather conditions in past years. The results will help you decide how hot, cold, wet, or windy it might be!

Date:

Astronomy

Jun. 10, 2013 Rise Set
Actual Time 5:05 AM CDT 8:37 PM CDT
Civil Twilight 4:28 AM CDT 9:14 PM CDT
Nautical Twilight 3:39 AM CDT 10:03 PM CDT
Astronomical Twilight 2:36 AM CDT 11:07 PM CDT
Moon 6:57 AM CDT (6/10) 9:59 PM CDT (6/10)
Length of Visible Light 16h 46m
Length of Day
15h 32m
Waxing Crescent, 4% of the Moon is Illuminated
Jun 10
Waxing Crescent
Jun 16
First Quarter
Jun 23
Full
Jun 29
Last Quarter
Jul 8
New

Hourly Weather History & Observations

Time (CDT) Temp. Dew Point Humidity Pressure Visibility Wind Dir Wind Speed Gust Speed Precip Events Conditions
12:15 AM 56.5 °F 54.7 °F 94% 29.89 in 10.0 mi Calm Calm - N/A   Clear
12:35 AM 56.1 °F 55.0 °F 96% 29.88 in 10.0 mi NE 3.5 mph - N/A   Scattered Clouds
12:55 AM 57.2 °F 55.4 °F 94% 29.88 in 10.0 mi Calm Calm - N/A   Mostly Cloudy
1:15 AM 55.9 °F 54.7 °F 96% 29.88 in 10.0 mi Calm Calm - N/A   Mostly Cloudy
1:35 AM 57.4 °F 55.6 °F 94% 29.87 in 10.0 mi Calm Calm - N/A   Overcast
1:55 AM 57.4 °F 55.4 °F 93% 29.86 in 10.0 mi Calm Calm - N/A   Overcast
2:15 AM 58.8 °F 55.4 °F 88% 29.85 in 10.0 mi ENE 3.5 mph - N/A   Mostly Cloudy
2:35 AM 59.2 °F 55.4 °F 87% 29.85 in 10.0 mi ENE 4.6 mph - N/A   Scattered Clouds
2:55 AM 59.4 °F 54.9 °F 85% 29.85 in 10.0 mi NE 3.5 mph - N/A   Clear
3:15 AM 59.2 °F 54.5 °F 84% 29.84 in 10.0 mi NE 3.5 mph - N/A   Clear
3:35 AM 58.6 °F 54.1 °F 85% 29.84 in 10.0 mi NE 3.5 mph - N/A   Clear
3:55 AM 57.9 °F 54.3 °F 88% 29.84 in 10.0 mi NE 3.5 mph - N/A   Clear
4:15 AM 55.8 °F 53.8 °F 93% 29.84 in 10.0 mi North 4.6 mph - N/A   Clear
4:35 AM 55.4 °F 53.6 °F 94% 29.84 in 10.0 mi NNE 5.8 mph - N/A   Clear
4:55 AM 55.2 °F 53.4 °F 94% 29.84 in 10.0 mi Calm Calm - N/A   Clear
5:15 AM 53.6 °F 52.3 °F 95% 29.84 in 7.0 mi North 3.5 mph - N/A   Clear
5:35 AM 53.8 °F 52.7 °F 96% 29.84 in 7.0 mi NNE 3.5 mph - N/A   Clear
5:55 AM 54.5 °F 53.1 °F 95% 29.84 in 7.0 mi NNE 3.5 mph - N/A   Clear
6:15 AM 54.7 °F 53.2 °F 95% 29.84 in 7.0 mi NNE 4.6 mph - N/A   Clear
6:35 AM 55.9 °F 53.2 °F 91% 29.84 in 10.0 mi NE 4.6 mph - N/A   Clear
6:55 AM 56.1 °F 52.9 °F 89% 29.84 in 10.0 mi NNE 3.5 mph - N/A   Scattered Clouds
7:15 AM 56.8 °F 53.1 °F 87% 29.84 in 10.0 mi NE 3.5 mph - N/A   Scattered Clouds
7:55 AM 58.3 °F 53.4 °F 84% 29.84 in 10.0 mi NE 3.5 mph - N/A   Mostly Cloudy
8:15 AM 59.2 °F 53.2 °F 81% 29.84 in 10.0 mi ENE 4.6 mph - N/A   Overcast
8:35 AM 59.9 °F 53.8 °F 80% 29.84 in 10.0 mi NNE 4.6 mph - N/A   Overcast
8:55 AM 60.6 °F 53.8 °F 78% 29.84 in 10.0 mi Calm Calm - N/A   Overcast
9:15 AM 61.0 °F 53.6 °F 77% 29.84 in 10.0 mi ENE 4.6 mph - N/A   Overcast
9:35 AM 61.7 °F 53.4 °F 74% 29.84 in 10.0 mi East 4.6 mph - N/A   Overcast
9:55 AM 62.6 °F 53.8 °F 73% 29.84 in 10.0 mi East 5.8 mph - N/A   Overcast
10:15 AM 61.9 °F 53.8 °F 75% 29.84 in 10.0 mi East 3.5 mph - N/A   Overcast
10:35 AM 62.2 °F 54.0 °F 74% 29.84 in 10.0 mi East 4.6 mph - N/A   Overcast
10:55 AM 62.6 °F 54.3 °F 74% 29.84 in 10.0 mi East 3.5 mph - N/A   Overcast
11:15 AM 66.0 °F 55.6 °F 69% 29.84 in 10.0 mi NE 4.6 mph - N/A   Overcast
11:35 AM 66.4 °F 55.9 °F 69% 29.84 in 10.0 mi ENE 3.5 mph - N/A   Overcast
11:55 AM 66.2 °F 56.5 °F 71% 29.84 in 10.0 mi NNE 3.5 mph - N/A   Overcast
12:15 PM 66.6 °F 57.0 °F 71% 29.84 in 10.0 mi North 3.5 mph - N/A   Overcast
12:35 PM 67.3 °F 57.7 °F 71% 29.84 in 10.0 mi Calm Calm - N/A   Overcast
12:55 PM 69.8 °F 58.8 °F 68% 29.82 in 10.0 mi SE 4.6 mph - N/A   Mostly Cloudy
1:15 PM 70.5 °F 59.9 °F 69% 29.82 in 10.0 mi East 5.8 mph - N/A   Mostly Cloudy
1:35 PM 70.9 °F 60.1 °F 69% 29.82 in 10.0 mi NNE 6.9 mph - N/A   Mostly Cloudy
1:55 PM 72.1 °F 60.3 °F 66% 29.81 in 10.0 mi North 3.5 mph - N/A   Mostly Cloudy
2:15 PM 72.0 °F 59.9 °F 66% 29.81 in 10.0 mi East 3.5 mph - N/A   Scattered Clouds
2:35 PM 72.5 °F 59.7 °F 64% 29.81 in 10.0 mi East 6.9 mph - N/A   Scattered Clouds
2:55 PM 73.2 °F 59.4 °F 62% 29.81 in 10.0 mi East 6.9 mph - N/A   Clear
3:15 PM 73.9 °F 59.5 °F 61% 29.81 in 10.0 mi ESE 5.8 mph - N/A   Clear
3:35 PM 73.6 °F 59.2 °F 61% 29.81 in 10.0 mi ESE 5.8 mph - N/A   Clear
3:55 PM 73.4 °F 59.2 °F 61% 29.80 in 10.0 mi East 4.6 mph - N/A   Clear
4:15 PM 73.4 °F 59.4 °F 61% 29.80 in 10.0 mi ESE 6.9 mph - N/A   Clear
4:35 PM 73.2 °F 59.7 °F 63% 29.80 in 10.0 mi East 5.8 mph - N/A   Clear
4:55 PM 73.2 °F 59.9 °F 63% 29.80 in 10.0 mi ESE 5.8 mph - N/A   Clear
5:15 PM 72.5 °F 59.7 °F 64% 29.81 in 10.0 mi SE 3.5 mph - N/A   Clear
5:35 PM 72.0 °F 59.7 °F 65% 29.81 in 10.0 mi ESE 5.8 mph - N/A   Clear
5:55 PM 70.0 °F 58.5 °F 67% 29.81 in 10.0 mi ESE 5.8 mph - N/A   Clear
6:15 PM 68.9 °F 58.3 °F 69% 29.80 in 10.0 mi ESE 6.9 mph - N/A   Clear
6:35 PM 69.3 °F 58.8 °F 69% 29.80 in 10.0 mi East 4.6 mph - N/A   Clear
6:55 PM 68.5 °F 58.3 °F 70% 29.80 in 10.0 mi East 5.8 mph - N/A   Clear
7:15 PM 67.3 °F 57.7 °F 71% 29.81 in 10.0 mi East 3.5 mph - N/A   Clear
7:35 PM 66.6 °F 57.2 °F 72% 29.81 in 10.0 mi East 5.8 mph - N/A   Clear
7:55 PM 65.1 °F 56.8 °F 75% 29.81 in 10.0 mi East 4.6 mph - N/A   Clear
8:15 PM 63.9 °F 57.4 °F 79% 29.82 in 10.0 mi East 3.5 mph - N/A   Clear
8:35 PM 62.8 °F 57.9 °F 84% 29.82 in 10.0 mi East 4.6 mph - N/A   Clear
8:55 PM 62.1 °F 57.7 °F 86% 29.82 in 10.0 mi East 3.5 mph - N/A   Clear
9:15 PM 61.0 °F 57.6 °F 88% 29.83 in 10.0 mi Calm Calm - N/A   Clear
9:35 PM 60.8 °F 57.9 °F 90% 29.83 in 10.0 mi East 3.5 mph - N/A   Clear
9:55 PM 60.1 °F 57.9 °F 93% 29.84 in 10.0 mi Calm Calm - N/A   Clear
10:15 PM 59.9 °F 57.7 °F 93% 29.84 in 10.0 mi Calm Calm - N/A   Scattered Clouds
10:35 PM 58.5 °F 57.0 °F 95% 29.83 in 10.0 mi Calm Calm - N/A   Clear
10:55 PM 57.4 °F 55.8 °F 94% 29.84 in 10.0 mi Calm Calm - N/A   Clear
11:15 PM 56.8 °F 56.3 °F 98% 29.84 in 7.0 mi Calm Calm - N/A   Clear
11:35 PM 56.1 °F 55.6 °F 98% 29.84 in 7.0 mi Calm Calm - N/A   Clear
11:55 PM 55.4 °F 54.5 °F 97% 29.84 in 10.0 mi Calm Calm - N/A   Clear